Weather History for Sella Ness, United Kingdom

Change the Weather History Date:

Monday, July 22, 2013

  Actual Average Record
Temperature  
Mean Temperature 52 °F -  
Max Temperature 57 °F 58 °F 68 °F (1997)
Min Temperature 48 °F 52 °F 44 °F (2010)
Degree Days  
Heating Degree Days 12    
Growing Degree Days 2 (Base 50)    
Moisture  
Dew Point 51 °F    
Average Humidity 95    
Maximum Humidity 100    
Minimum Humidity 82    
Precipitation  
Precipitation 0.00 in - - ()
Sea Level Pressure  
Sea Level Pressure 30.18 in    
Wind  
Wind Speed 10 mph ()    
Max Wind Speed 20 mph    
Max Gust Speed -    
Visibility 4.1 miles    
Events Fog    
Averages and records for this station are not official NWS values.
T = Trace of Precipitation, MM = Missing Value Source: Averaged Metar Reports

Daily Weather History Graph

Daily Weather History Graph

Search for Another Location

Airport:

Trip Planner

Search our weather history database for the weather conditions in past years. The results will help you decide how hot, cold, wet, or windy it might be!

Date:

Astronomy

Jul. 22, 2013 Rise Set
Actual Time 4:19 AM BST 10:01 PM BST
Civil Twilight 3:06 AM BST 11:13 PM BST
Nautical Twilight Sun does not rise 12:39 AM BST
Astronomical Twilight Sun does not rise Sun does not rise
Moon 9:07 PM BST (7/22) 4:16 AM BST (7/22)
Length of Visible Light 20h 06m
Length of Day
17h 42m
Full, 100% of the Moon is Illuminated
Jul 22
Full
Jul 22
Full
Jul 29
Last Quarter
Aug 6
New
Aug 14
First Quarter

Hourly Weather History & Observations

Time (BST) Temp. Dew Point Humidity Pressure Visibility Wind Dir Wind Speed Gust Speed Precip Events Conditions
12:20 AM 51.8 °F 50.0 °F 94% 30.24 in 1.7 mi ENE 6.9 mph - N/A   Haze
12:50 AM 50.0 °F 50.0 °F 100% 30.24 in 5.0 mi ENE 6.9 mph - N/A   Mostly Cloudy
1:20 AM 50.0 °F 50.0 °F 100% 30.24 in 1.6 mi East 5.8 mph - N/A   Haze
1:50 AM 50.0 °F 50.0 °F 100% 30.24 in 3.7 mi ESE 5.8 mph - N/A   Mostly Cloudy
2:20 AM 50.0 °F 50.0 °F 100% 30.24 in - ENE 5.8 mph - N/A   Haze
2:50 AM 48.2 °F 48.2 °F 100% 30.24 in 6.2 mi NE 5.8 mph - N/A   Overcast
3:20 AM 48.2 °F 48.2 °F 100% 30.24 in 6.2 mi East 5.8 mph - N/A   Mostly Cloudy
3:50 AM 48.2 °F 48.2 °F 100% 30.24 in 0.5 mi ENE 8.1 mph - N/A Fog Fog
4:20 AM 48.2 °F 48.2 °F 100% 30.24 in 0.3 mi East 10.4 mph - N/A Fog Fog
4:50 AM 48.2 °F 48.2 °F 100% 30.21 in 0.2 mi ENE 9.2 mph - N/A Fog Fog
5:20 AM 48.2 °F 48.2 °F 100% 30.21 in 0.5 mi East 9.2 mph - N/A Fog Fog
5:50 AM 50.0 °F 50.0 °F 100% 30.21 in 1.1 mi ENE 9.2 mph - N/A   Mist
6:20 AM 50.0 °F 50.0 °F 100% 30.21 in 0.2 mi East 8.1 mph - N/A Fog Fog
6:50 AM 50.0 °F 50.0 °F 100% 30.21 in 0.2 mi East 8.1 mph - N/A Fog Fog
7:20 AM 50.0 °F 50.0 °F 100% 30.21 in 0.2 mi East 12.7 mph - N/A Fog Fog
7:50 AM 50.0 °F 50.0 °F 100% 30.21 in 0.4 mi ENE 11.5 mph - N/A Fog Fog
8:20 AM 50.0 °F 50.0 °F 100% 30.21 in 0.4 mi ENE 11.5 mph - N/A Fog Fog
8:50 AM 51.8 °F 51.8 °F 100% 30.21 in 0.3 mi ENE 12.7 mph - N/A Fog Fog
9:20 AM 51.8 °F 51.8 °F 100% 30.21 in 0.5 mi ENE 11.5 mph - N/A Fog Fog
9:50 AM 51.8 °F 51.8 °F 100% 30.21 in 0.7 mi ENE 13.8 mph - N/A   Overcast
10:20 AM 51.8 °F 51.8 °F 100% 30.21 in 0.7 mi ENE 11.5 mph - N/A   Overcast
10:50 AM 53.6 °F 53.6 °F 100% 30.18 in 5.6 mi East 12.7 mph - N/A   Mostly Cloudy
11:20 AM 53.6 °F 53.6 °F 100% 30.18 in 5.6 mi East 13.8 mph - N/A   Mostly Cloudy
11:50 AM 53.6 °F 51.8 °F 94% 30.18 in 5.6 mi East 13.8 mph - N/A   Mostly Cloudy
12:20 PM 55.4 °F 53.6 °F 94% 30.18 in 6.2 mi East 13.8 mph - N/A   Mostly Cloudy
12:50 PM 57.2 °F 53.6 °F 88% 30.18 in 6.2 mi East 15.0 mph - N/A   Mostly Cloudy
1:20 PM 55.4 °F 51.8 °F 88% 30.18 in 6.2 mi East 16.1 mph - N/A   Mostly Cloudy
1:50 PM 55.4 °F 53.6 °F 94% 30.18 in 6.2 mi East 16.1 mph - N/A   Mostly Cloudy
2:20 PM 55.4 °F 51.8 °F 88% 30.18 in 6.2 mi East 16.1 mph - N/A   Mostly Cloudy
2:50 PM 55.4 °F 51.8 °F 88% 30.18 in 6.2 mi East 15.0 mph - N/A   Scattered Clouds
3:20 PM 55.4 °F 51.8 °F 88% 30.18 in 6.2 mi East 15.0 mph - N/A   Partly Cloudy
3:50 PM 55.4 °F 50.0 °F 82% 30.15 in 6.2 mi East 16.1 mph - N/A   Partly Cloudy
4:20 PM 57.2 °F 51.8 °F 82% 30.15 in 6.2 mi East 16.1 mph - N/A   Partly Cloudy
4:50 PM 57.2 °F 51.8 °F 82% 30.15 in 6.2 mi East 16.1 mph - N/A   Partly Cloudy
5:20 PM 55.4 °F 50.0 °F 82% 30.15 in 6.2 mi East 19.6 mph - N/A   Partly Cloudy
5:50 PM 53.6 °F 50.0 °F 88% 30.12 in 6.2 mi East 19.6 mph - N/A   Partly Cloudy
6:20 PM 53.6 °F 50.0 °F 88% 30.12 in 6.2 mi East 19.6 mph - N/A   Partly Cloudy
6:50 PM 53.6 °F 50.0 °F 88% 30.12 in 6.2 mi East 17.3 mph - N/A   Partly Cloudy
7:20 PM 53.6 °F 51.8 °F 94% 30.12 in 6.2 mi East 17.3 mph - N/A   Scattered Clouds
8:20 PM 53.6 °F 51.8 °F 94% 30.12 in 6.2 mi East 13.8 mph - N/A   Scattered Clouds
8:50 PM 53.6 °F 51.8 °F 94% 30.12 in 6.2 mi East 12.7 mph - N/A   Overcast
9:20 PM 53.6 °F 51.8 °F 94% 30.12 in 6.2 mi ENE 11.5 mph - N/A   Mostly Cloudy
9:50 PM 53.6 °F 51.8 °F 94% 30.12 in 6.2 mi ENE 9.2 mph - N/A   Overcast
10:20 PM 53.6 °F 51.8 °F 94% 30.12 in 6.2 mi ENE 8.1 mph - N/A   Overcast
10:50 PM 53.6 °F 51.8 °F 94% 30.12 in 6.2 mi East 12.7 mph - N/A   Overcast
11:20 PM 53.6 °F 51.8 °F 94% 30.09 in 6.2 mi East 13.8 mph - N/A   Overcast
11:50 PM 53.6 °F 51.8 °F 94% 30.09 in 6.2 mi East 13.8 mph - N/A   Overcast